| time (UTC) | temp C | wind direction | speed KPH | gust KPH | rain 1hr cm | rain 24hr cm | rain mn cm | humidity % | barometer mb |
| 20260505050839 | 22 | 122 | 4.8 | 11.3 | 0.25 | 2.03 | 0.25 | 89 | 1015.7 |
| 20260505050332 | 22 | 120 | 6.4 | 14.5 | 0.13 | 1.91 | 0.13 | 88 | 1015.8 |
| 20260505041323 | 24 | 51 | 3.2 | 16.1 | 0.00 | 1.78 | 0.00 | 81 | 1016.0 |
| 20260505040834 | 24 | 57 | 3.2 | 16.1 | 0.00 | 1.78 | 0.00 | 80 | 1016.0 |
| 20260505040322 | 24 | 97 | 6.4 | 12.9 | 0.00 | 1.78 | 0.00 | 80 | 1016.0 |
| 20260505035835 | 24 | 125 | 3.2 | 14.5 | 0.00 | 1.78 | 0.00 | 81 | 1016.0 |
| 20260505035326 | 24 | 69 | 8.0 | 14.5 | 0.00 | 1.78 | 1.78 | 81 | 1015.9 |
| 20260505034847 | 24 | 41 | 3.2 | 11.3 | 0.00 | 1.78 | 1.78 | 81 | 1016.0 |
| 20260505034339 | 24 | 65 | 6.4 | 11.3 | 0.00 | 1.78 | 1.78 | 81 | 1016.0 |
| 20260505033829 | 24 | 61 | 4.8 | 8.0 | 0.00 | 1.78 | 1.78 | 81 | 1016.0 |
| 20260505033343 | 24 | 42 | 3.2 | 14.5 | 0.00 | 1.78 | 1.78 | 81 | 1016.1 |
| 20260505032845 | 24 | 89 | 6.4 | 14.5 | 0.00 | 1.78 | 1.78 | 81 | 1016.0 |
| 20260505032338 | 24 | 45 | 3.2 | 14.5 | 0.00 | 1.78 | 1.78 | 81 | 1015.9 |
| 20260505031821 | 24 | 76 | 6.4 | 14.5 | 0.00 | 1.78 | 1.78 | 81 | 1015.9 |
| 20260505031332 | 24 | 75 | 3.2 | 11.3 | 0.00 | 1.78 | 1.78 | 81 | 1015.9 |
| 20260505030822 | 24 | 48 | 3.2 | 11.3 | 0.00 | 1.78 | 1.78 | 81 | 1015.9 |
| 20260505030337 | 24 | 36 | 4.8 | 11.3 | 0.00 | 1.78 | 1.78 | 81 | 1015.8 |
| 20260505025830 | 24 | 103 | 4.8 | 11.3 | 0.00 | 1.78 | 1.78 | 81 | 1015.8 |
| 20260505025324 | 24 | 20 | 4.8 | 11.3 | 0.00 | 1.78 | 1.78 | 81 | 1015.8 |
| 20260505024834 | 24 | 96 | 6.4 | 11.3 | 0.00 | 1.78 | 1.78 | 81 | 1015.9 |
| 20260505024328 | 24 | 133 | 6.4 | 9.7 | 0.00 | 1.78 | 1.78 | 81 | 1016.0 |
| 20260505023823 | 24 | 133 | 4.8 | 11.3 | 0.00 | 1.78 | 1.78 | 81 | 1015.9 |
| 20260505023338 | 24 | 70 | 4.8 | 14.5 | 0.00 | 1.78 | 1.78 | 81 | 1015.7 |
| 20260505022905 | 24 | 67 | 9.7 | 14.5 | 0.00 | 1.78 | 1.78 | 80 | 1015.8 |
| 20260505022355 | 24 | 57 | 4.8 | 11.3 | 0.00 | 1.78 | 1.78 | 80 | 1015.9 |
| 20260505021826 | 24 | 71 | 8.0 | 16.1 | 0.00 | 1.78 | 1.78 | 80 | 1015.7 |
| 20260505021348 | 24 | 127 | 9.7 | 16.1 | 0.00 | 1.78 | 1.78 | 80 | 1015.9 |
| 20260505020831 | 24 | 42 | 4.8 | 12.9 | 0.00 | 1.78 | 1.78 | 80 | 1016.0 |
| 20260505020323 | 24 | 117 | 6.4 | 12.9 | 0.00 | 1.78 | 1.78 | 80 | 1015.9 |
| 20260505015836 | 24 | 97 | 6.4 | 16.1 | 0.00 | 1.78 | 1.78 | 80 | 1016.1 |
| 20260505015346 | 24 | 131 | 6.4 | 16.1 | 0.00 | 1.78 | 1.78 | 80 | 1016.0 |
| 20260505014826 | 24 | 34 | 6.4 | 12.9 | 0.00 | 1.78 | 1.78 | 80 | 1015.9 |
| 20260505014347 | 24 | 70 | 3.2 | 14.5 | 0.00 | 1.78 | 1.78 | 80 | 1015.8 |
| 20260505013820 | 24 | 121 | 6.4 | 14.5 | 0.00 | 1.78 | 1.78 | 80 | 1015.8 |
| 20260505013334 | 24 | 53 | 8.0 | 14.5 | 0.00 | 1.78 | 1.78 | 80 | 1015.6 |
| 20260505012837 | 24 | 55 | 8.0 | 14.5 | 0.00 | 1.78 | 1.78 | 80 | 1015.6 |
| 20260505012342 | 24 | 130 | 6.4 | 12.9 | 0.00 | 1.78 | 1.78 | 80 | 1015.6 |
| 20260505011850 | 24 | 97 | 6.4 | 11.3 | 0.00 | 1.78 | 1.78 | 80 | 1015.5 |
| 20260505011342 | 24 | 77 | 4.8 | 11.3 | 0.00 | 1.78 | 1.78 | 80 | 1015.5 |
| 20260505010829 | 24 | 74 | 6.4 | 11.3 | 0.00 | 1.78 | 1.78 | 80 | 1015.4 |
| 20260505010323 | 24 | 66 | 6.4 | 11.3 | 0.00 | 1.78 | 1.78 | 80 | 1015.4 |
| 20260505005845 | 24 | 228 | 6.4 | 16.1 | 0.00 | 1.78 | 1.78 | 80 | 1015.4 |
| 20260505005319 | 24 | 149 | 6.4 | 16.1 | 0.00 | 1.78 | 1.78 | 80 | 1015.3 |
| 20260505004835 | 24 | 59 | 4.8 | 12.9 | 0.00 | 1.78 | 1.78 | 80 | 1015.3 |
| 20260505004321 | 24 | 36 | 4.8 | 12.9 | 0.00 | 1.78 | 1.78 | 80 | 1015.3 |
| 20260505003832 | 24 | 39 | 6.4 | 12.9 | 0.00 | 1.78 | 1.78 | 80 | 1015.1 |
| 20260505003325 | 24 | 55 | 6.4 | 14.5 | 0.00 | 1.78 | 1.78 | 80 | 1015.1 |
| 20260505002848 | 24 | 64 | 6.4 | 14.5 | 0.00 | 1.78 | 1.78 | 80 | 1015.1 |
| 20260505002342 | 24 | 107 | 4.8 | 16.1 | 0.00 | 1.78 | 1.78 | 80 | 1015.0 |
| 20260505001838 | 24 | 141 | 9.7 | 16.1 | 0.00 | 1.78 | 1.78 | 80 | 1015.2 |
| 20260505001329 | 24 | 72 | 8.0 | 19.3 | 0.00 | 1.78 | 1.78 | 79 | 1015.1 |
| 20260505000823 | 24 | 72 | 9.7 | 19.3 | 0.00 | 1.78 | 1.78 | 79 | 1015.1 |
| 20260505000345 | 24 | 53 | 8.0 | 17.7 | 0.00 | 1.78 | 1.78 | 79 | 1015.0 |
| 20260504235829 | 24 | 50 | 9.7 | 16.1 | 0.00 | 1.78 | 1.78 | 79 | 1015.1 |
| 20260504235345 | 24 | 35 | 8.0 | 16.1 | 0.00 | 1.78 | 1.78 | 79 | 1015.1 |
| 20260504234854 | 24 | 64 | 4.8 | 16.1 | 0.00 | 1.78 | 1.78 | 79 | 1015.0 |
| 20260504234327 | 25 | 22 | 8.0 | 22.5 | 0.00 | 1.78 | 1.78 | 79 | 1015.0 |
| 20260504233820 | 25 | 66 | 9.7 | 22.5 | 0.00 | 1.78 | 1.78 | 79 | 1015.1 |
| 20260504233342 | 25 | 68 | 9.7 | 22.5 | 0.00 | 1.78 | 1.78 | 79 | 1015.0 |
| 20260504232836 | 25 | 59 | 9.7 | 22.5 | 0.00 | 1.78 | 1.78 | 79 | 1015.1 |
| 20260504232330 | 25 | 322 | 6.4 | 14.5 | 0.00 | 1.78 | 1.78 | 79 | 1015.1 |
| 20260504231832 | 25 | 23 | 6.4 | 14.5 | 0.00 | 1.78 | 1.78 | 79 | 1015.0 |
| 20260504231346 | 25 | 32 | 8.0 | 17.7 | 0.00 | 1.78 | 1.78 | 79 | 1014.9 |
| 20260504230847 | 25 | 144 | 6.4 | 17.7 | 0.00 | 1.78 | 1.78 | 79 | 1014.8 |
| 20260504230341 | 25 | 53 | 9.7 | 20.9 | 0.00 | 1.78 | 1.78 | 79 | 1014.8 |
| 20260504225832 | 25 | 80 | 11.3 | 20.9 | 0.00 | 1.78 | 1.78 | 78 | 1014.6 |
| 20260504225324 | 25 | 41 | 9.7 | 20.9 | 0.00 | 1.78 | 1.78 | 78 | 1014.7 |
| 20260504224846 | 25 | 56 | 9.7 | 20.9 | 0.00 | 1.78 | 1.78 | 78 | 1014.6 |
| 20260504224342 | 25 | 82 | 11.3 | 20.9 | 0.00 | 1.78 | 1.78 | 78 | 1014.7 |
| 20260504223827 | 25 | 32 | 9.7 | 24.1 | 0.00 | 1.78 | 1.78 | 78 | 1014.7 |
| 20260504223342 | 25 | 70 | 9.7 | 24.1 | 0.00 | 1.78 | 1.78 | 78 | 1014.6 |
| 20260504222851 | 25 | 110 | 9.7 | 27.4 | 0.00 | 1.78 | 1.78 | 78 | 1014.6 |
| 20260504222352 | 25 | 148 | 9.7 | 27.4 | 0.00 | 1.78 | 1.78 | 78 | 1014.6 |
| 20260504221847 | 25 | 113 | 9.7 | 22.5 | 0.00 | 1.78 | 1.78 | 77 | 1014.7 |
| 20260504221321 | 25 | 120 | 12.9 | 25.7 | 0.00 | 1.78 | 1.78 | 77 | 1014.8 |
| 20260504220831 | 25 | 101 | 11.3 | 25.7 | 0.00 | 1.78 | 1.78 | 78 | 1014.9 |
| 20260504220346 | 25 | 63 | 11.3 | 20.9 | 0.00 | 1.78 | 1.78 | 78 | 1014.7 |
| 20260504215819 | 25 | 4 | 9.7 | 20.9 | 0.00 | 1.78 | 1.78 | 78 | 1014.8 |
| 20260504215330 | 25 | 46 | 11.3 | 19.3 | 0.00 | 1.78 | 1.78 | 78 | 1014.7 |
| 20260504214820 | 25 | 53 | 11.3 | 19.3 | 0.00 | 1.78 | 1.78 | 78 | 1014.6 |
| 20260504214329 | 25 | 60 | 9.7 | 19.3 | 0.00 | 1.78 | 1.78 | 78 | 1014.6 |
| 20260504213823 | 25 | 54 | 9.7 | 25.7 | 0.00 | 1.78 | 1.78 | 78 | 1014.6 |
| 20260504213345 | 25 | 143 | 11.3 | 25.7 | 0.00 | 1.78 | 1.78 | 78 | 1014.4 |
| 20260504212837 | 25 | 134 | 11.3 | 22.5 | 0.00 | 1.78 | 1.78 | 78 | 1014.5 |
| 20260504212331 | 25 | 75 | 12.9 | 20.9 | 0.00 | 1.78 | 1.78 | 78 | 1014.5 |
| 20260504211836 | 25 | 110 | 8.0 | 20.9 | 0.00 | 1.78 | 1.78 | 78 | 1014.7 |
| 20260504211347 | 25 | 71 | 8.0 | 22.5 | 0.00 | 1.78 | 1.78 | 78 | 1014.7 |
| 20260504210819 | 25 | 26 | 11.3 | 22.5 | 0.00 | 1.78 | 1.78 | 78 | 1014.7 |
| 20260504210342 | 25 | 30 | 11.3 | 22.5 | 0.00 | 1.78 | 1.78 | 77 | 1014.6 |
| 20260504205827 | 25 | 41 | 11.3 | 19.3 | 0.00 | 1.78 | 1.78 | 77 | 1014.9 |
| 20260504205321 | 26 | 62 | 9.7 | 22.5 | 0.00 | 1.93 | 1.78 | 77 | 1014.8 |
| 20260504204832 | 25 | 15 | 9.7 | 32.2 | 0.00 | 1.93 | 1.78 | 78 | 1014.9 |
| 20260504204325 | 25 | 74 | 16.1 | 32.2 | 0.00 | 1.93 | 1.78 | 78 | 1014.9 |
| 20260504203848 | 25 | 49 | 11.3 | 22.5 | 0.00 | 1.93 | 1.78 | 78 | 1014.8 |
| 20260504203331 | 25 | 91 | 11.3 | 22.5 | 0.00 | 1.93 | 1.78 | 78 | 1014.9 |
| 20260504202841 | 25 | 117 | 11.3 | 24.1 | 0.00 | 1.93 | 1.78 | 78 | 1014.8 |
| 20260504202349 | 25 | 64 | 9.7 | 20.9 | 0.00 | 1.93 | 1.78 | 78 | 1014.9 |
| 20260504201820 | 25 | 78 | 11.3 | 20.9 | 0.00 | 1.93 | 1.78 | 78 | 1015.0 |
| 20260504201321 | 25 | 21 | 9.7 | 22.5 | 0.00 | 1.93 | 1.78 | 78 | 1015.0 |
| 20260504200831 | 25 | 51 | 12.9 | 29.0 | 0.00 | 1.93 | 1.78 | 78 | 1015.0 |
| 20260504200322 | 25 | 131 | 12.9 | 29.0 | 0.00 | 1.93 | 1.78 | 78 | 1015.2 |
| 20260504195831 | 25 | 131 | 8.0 | 22.5 | 0.00 | 1.93 | 1.78 | 78 | 1015.1 |
| 20260504195322 | 25 | 58 | 12.9 | 22.5 | 0.00 | 1.96 | 1.78 | 78 | 1015.2 |
| 20260504194845 | 25 | 122 | 9.7 | 19.3 | 0.00 | 1.96 | 1.78 | 79 | 1015.3 |
| 20260504194332 | 25 | 108 | 9.7 | 25.7 | 0.00 | 1.96 | 1.78 | 78 | 1015.4 |
| 20260504193825 | 25 | 27 | 12.9 | 25.7 | 0.00 | 1.96 | 1.78 | 78 | 1015.3 |
| 20260504193334 | 25 | 51 | 8.0 | 25.7 | 0.00 | 1.96 | 1.78 | 78 | 1015.4 |
| 20260504192826 | 25 | 98 | 12.9 | 25.7 | 0.00 | 1.96 | 1.78 | 78 | 1015.5 |
| 20260504192328 | 25 | 71 | 9.7 | 22.5 | 0.00 | 1.96 | 1.78 | 79 | 1015.5 |
| 20260504191820 | 25 | 84 | 9.7 | 22.5 | 0.00 | 1.96 | 1.78 | 78 | 1015.7 |
| 20260504191342 | 25 | 67 | 9.7 | 19.3 | 0.00 | 1.96 | 1.78 | 78 | 1015.7 |
| 20260504190837 | 25 | 22 | 9.7 | 22.5 | 0.00 | 1.96 | 1.78 | 78 | 1015.6 |
| 20260504190327 | 25 | 68 | 11.3 | 22.5 | 0.00 | 1.96 | 1.78 | 78 | 1015.7 |
| 20260504185820 | 25 | 174 | 11.3 | 25.7 | 0.00 | 1.96 | 1.78 | 78 | 1015.6 |
| 20260504185334 | 25 | 117 | 11.3 | 25.7 | 0.00 | 1.98 | 1.78 | 78 | 1015.8 |
| 20260504184848 | 26 | 124 | 11.3 | 20.9 | 0.00 | 1.98 | 1.78 | 77 | 1015.8 |
| 20260504184338 | 26 | 124 | 11.3 | 27.4 | 0.00 | 1.98 | 1.78 | 77 | 1015.9 |
| 20260504183829 | 26 | 227 | 16.1 | 27.4 | 0.00 | 1.98 | 1.78 | 77 | 1015.8 |
| 20260504183339 | 26 | 53 | 12.9 | 24.1 | 0.00 | 1.98 | 1.78 | 77 | 1015.9 |
| 20260504182857 | 26 | 46 | 12.9 | 25.7 | 0.00 | 1.98 | 1.78 | 78 | 1015.9 |
| 20260504182403 | 26 | 53 | 14.5 | 25.7 | 0.00 | 1.98 | 1.78 | 78 | 1016.0 |
| 20260504181835 | 26 | 67 | 14.5 | 25.7 | 0.00 | 1.98 | 1.78 | 78 | 1016.1 |
| 20260504181334 | 26 | 193 | 14.5 | 33.8 | 0.00 | 1.98 | 1.78 | 78 | 1016.1 |
| 20260504180908 | 26 | 27 | 12.9 | 33.8 | 0.00 | 1.98 | 1.78 | 78 | 1016.1 |
| 20260504180338 | 26 | 68 | 14.5 | 24.1 | 0.00 | 1.98 | 1.78 | 78 | 1016.3 |
| 20260504175828 | 25 | 58 | 9.7 | 25.7 | 0.00 | 1.98 | 1.78 | 79 | 1016.2 |
| 20260504175321 | 25 | 68 | 14.5 | 25.7 | 0.00 | 2.06 | 1.78 | 79 | 1016.3 |
| 20260504174829 | 25 | 42 | 11.3 | 24.1 | 0.00 | 2.06 | 1.78 | 79 | 1016.4 |
| 20260504174341 | 25 | 46 | 9.7 | 20.9 | 0.00 | 2.06 | 1.78 | 80 | 1016.5 |
| 20260504173821 | 25 | 56 | 9.7 | 20.9 | 0.00 | 2.06 | 1.78 | 80 | 1016.5 |
| 20260504173345 | 25 | 103 | 11.3 | 25.7 | 0.00 | 2.06 | 1.78 | 80 | 1016.5 |
| 20260504172836 | 25 | 164 | 11.3 | 25.7 | 0.00 | 2.06 | 1.78 | 80 | 1016.6 |
| 20260504172335 | 25 | 125 | 14.5 | 24.1 | 0.00 | 2.06 | 1.78 | 80 | 1016.6 |
| 20260504171836 | 25 | 97 | 14.5 | 24.1 | 0.00 | 2.06 | 1.78 | 80 | 1016.5 |
| 20260504171346 | 25 | 25 | 12.9 | 24.1 | 0.00 | 2.06 | 1.78 | 79 | 1016.6 |
| 20260504170837 | 25 | 65 | 12.9 | 24.1 | 0.00 | 2.06 | 1.78 | 80 | 1016.5 |
| 20260504170318 | 25 | 73 | 11.3 | 24.1 | 0.00 | 2.06 | 1.78 | 80 | 1016.5 |
| 20260504160327 | 24 | 45 | 12.9 | 22.5 | 0.03 | 2.06 | 1.78 | 83 | 1017.0 |
| 20260504150840 | 22 | 39 | 8.0 | 19.3 | 0.03 | 2.03 | 1.75 | 90 | 1017.0 |
| 20260504150407 | 22 | 77 | 9.7 | 16.1 | 0.05 | 2.03 | 1.75 | 90 | 1017.0 |
| 20260504140822 | 22 | 25 | 9.7 | 29.0 | 0.08 | 2.01 | 1.73 | 90 | 1016.7 |
| 20260504140331 | 22 | 46 | 19.3 | 29.0 | 0.05 | 1.98 | 1.70 | 89 | 1016.6 |
| 20260504130348 | 23 | 337 | 4.8 | 12.9 | 0.00 | 2.03 | 1.65 | 90 | 1015.9 |
| 20260504110326 | 21 | 347 | 1.6 | 4.8 | 0.00 | 2.13 | 1.65 | 93 | 1014.5 |
| 20260504100320 | 22 | 20 | 1.6 | 6.4 | 0.00 | 2.13 | 1.65 | 93 | 1014.5 |
| 20260504081821 | 22 | 335 | 3.2 | 6.4 | 1.63 | 2.13 | 1.65 | 92 | 1013.5 |
| 20260504081405 | 22 | 339 | 4.8 | 6.4 | 1.63 | 2.13 | 1.65 | 92 | 1013.7 |
| 20260504080853 | 22 | 349 | 3.2 | 4.8 | 1.65 | 2.13 | 1.65 | 92 | 1013.9 |
| 20260504080323 | 22 | 359 | 1.6 | 3.2 | 1.65 | 2.13 | 1.65 | 92 | 1013.9 |
| 20260504070330 | 22 | 352 | 0.0 | 1.6 | 0.00 | 0.48 | 0.00 | 92 | 1014.3 |